Regional Weather Roundup
Issued by NWS

Home | Current Version | Previous Version | Graphics & Text | Print | Product List | Glossary Off
Versions: 1 2 3 4 5 6 7 8 9 10 11 12 13 14 15 16 17 18 19 20 21 22 23 24 25 26 27 28 29 30 31 32 33 34 35 36 37 38 39 40 41 42 43 44 45 46 47 48 49 50

000
ASUS43 KDMX 181407
RWRIA

WEATHER ROUNDUP FOR IOWA
NATIONAL WEATHER SERVICE DES MOINES IA
900 AM CDT SAT APR 18 2015

NOTE: "FAIR" INDICATES FEW OR NO CLOUDS BELOW 12,000 FEET WITH NO
SIGNIFICANT WEATHER AND/OR OBSTRUCTIONS TO VISIBILITY.

* - THESE STATIONS ARE NOT NWS STATIONS...THUS NOT UNDER NWS
QUALITY CONTROL.  THEY ALSO DO NOT REPORT WEATHER SUCH
AS PRECIPITATION OR FOG.

IAZ001>003-012>014-020>022-031>034-043>046-181500-
   NORTHWEST IOWA

CITY           SKY/WX    TMP DP  RH WIND       PRES   REMARKS
CARROLL *      CLOUDY    59  57  94 E17       29.96F
CHEROKEE *     CLOUDY    57  45  62 E12       29.96F
DENISON *      CLOUDY    61  61 100 E9        29.92F
LE MARS *      CLOUDY    57  45  62 CALM      29.97S
ORANGE CITY *  CLOUDY    55  39  54 E8        29.96F
SHELDON *      PTSUNNY   59  36  41 E16       29.96F
SIOUX CITY     CLOUDY    60  46  59 E8        29.94F
SPENCER        CLOUDY    59  38  45 E13       29.99F
STORM LAKE *   PTSUNNY   57  46  67 NE10      29.97F
$$

IAZ055>058-069>071-079>083-090>094-181500-
   SOUTHWEST IOWA

CITY           SKY/WX    TMP DP  RH WIND       PRES   REMARKS
ATLANTIC *     PTSUNNY   63  57  82 E13       29.93F
AUDUBON *      MOSUNNY   61  55  82 E10       29.96F
CLARINDA *     PTSUNNY   64  57  77 E6        29.94S
COUNCIL BLFS * PTSUNNY   63  59  88 E9        29.92S
CRESTON *      PTSUNNY   64  57  77 E12       29.94F
HARLAN  *      PTSUNNY   63  61  94 E16       29.97S
LAMONI         CLOUDY    65  56  72 E7        29.93F
RED OAK *      CLOUDY    63  57  82 NE3       29.92S
SHENANDOAH *   CLOUDY    64  57  77 E7        29.92S
$$

IAZ047>049-059>061-072>074-084-181500-
   CENTRAL IOWA

CITY           SKY/WX    TMP DP  RH WIND       PRES   REMARKS
AMES           HVY RAIN  58  54  86 NE8       29.99F FOG
ANKENY *       PTSUNNY   61  57  88 N12       29.97F
CHARITON *     PTSUNNY   63  55  77 E8        29.95F
DES MOINES     CLOUDY    63  56  78 NE13      29.96F
GRINNELL*      PTSUNNY   64  52  63 E10       29.99F
KNOXVILLE *    PTSUNNY   61  54  77 E8        29.95F
MARSHALLTOWN   CLOUDY    61  48  62 CALM      29.99F
PELLA *        CLOUDY    64  57  77 E6        29.98F
PERRY *        CLOUDY    61  57  88 NE8       29.96F
$$

IAZ004>006-015-016-023>025-035-036-181500-
   NORTH CENTRAL IOWA

CITY           SKY/WX    TMP DP  RH WIND       PRES   REMARKS
ALGONA *       PTSUNNY   57  41  54 E8G15     30.00F
CLARION *      CLOUDY    57  45  62 E6        30.01F
ESTHERVILLE    CLOUDY    56  38  50 E12       30.00F
FORT DODGE *   CLOUDY    61  46  59 E10       30.00S
MASON CITY     CLOUDY    62  39  42 E10       30.03F
FOREST CITY *  SUNNY     59  36  41 E12       30.02F
IOWA FALLS *   CLOUDY    59  45  58 SE6       30.03S
$$

IAZ007>011-017>019-026>030-037>042-050>054-066-181500-
   NORTHEAST IOWA

CITY           SKY/WX    TMP DP  RH WIND       PRES   REMARKS
CEDAR RAPIDS   MOSUNNY   62  50  64 E7        30.01R
CHARLES CITY * MOSUNNY   64  37  36 E13G22    30.03F
CLINTON *      MOSUNNY   66  50  55 E10       30.05R
DECORAH *      MOSUNNY   57  41  54 NE8       30.05S
DUBUQUE        MOSUNNY   65  42  43 E9        30.04R
MONTICELLO *   SUNNY     64  48  55 E5G14     30.02S
OELWEIN *      SUNNY     66  37  34 E15       30.03S
WATERLOO       CLOUDY    65  38  36 E13       30.01F
$$

IAZ064-065-067-068-078-181500-
   EAST CENTRAL IOWA

CITY           SKY/WX    TMP DP  RH WIND       PRES   REMARKS
DAVENPORT      MOSUNNY   64  50  60 E9        30.02S
IOWA CITY      MOSUNNY   63  53  70 CALM      30.02S
MT. PLEASANT * CLOUDY    64  55  72 E3        30.00S
MUSCATINE *    SUNNY     63  54  72 CALM      30.01R
QUAD CITIES    PTSUNNY   60  50  69 E7        30.01S
$$

IAZ062-063-075>077-085>089-095>099-181500-
   SOUTHEAST IOWA

CITY           SKY/WX    TMP DP  RH WIND       PRES   REMARKS
BURLINGTON     CLOUDY    65  56  72 CALM      30.00R
FAIRFIELD *    MOSUNNY   64  55  72 E7        29.99F
FORT MADISON * SUNNY     66  57  72 S6        30.00F
KEOKUK *       SUNNY     63  57  82 E6        29.98F
OSKALOOSA *      N/A     64  54  68 E9        29.99S
CENTERVILLE *  SUNNY     63  57  82 E7        29.98F
OTTUMWA        CLOUDY    64  54  69 E8        29.98S
WASHINGTON *   PTSUNNY   66  57  72 E7        30.00S
$$

ABBREVIATIONS USED IN REMARKS
   TC - TEMPERATURES IN CELSIUS
  WCI - WIND CHILL INDEX
   HX - HEAT INDEX
  VSB - VISIBILITY
$$




USA.gov is the U.S. government's official web portal to all federal, state and local government web resources and services.